NOAA 16 DEB, 41059

Orbit data source: Space-Track

NOAA 16 DEB, 41059 is space debris in SSO originally from a launch on Thu, 21 Sep 2000 UTC launched from the Air Force Western Test Range (AFWTR). Debris objects in space refer to the collection of defunct objects orbiting the Earth. Examples of debris include non-operational satellites, rocket bodies, and fragments generated from explosions, collisions, or faulty payload assembly.

Loading next visibility...
Identifier
41059, 2000-055S
Orbit
SSO
Country
Flag of USUS
Related business
Manufacturer
Unknown
Mission
Spacecraft
Bus & Motor
Unknown
Mass
Unknown
Launch date (UTC)
2000-09-21 (25 years ago)
Launch vehicle
Unknown
Launch site
Air Force Western Test Range (AFWTR)
Object type
Payload
Rocket body
Debris
Shape & HBR
Unknown shape, 0.2 m
Radar Cross Section
Small (<0.1 m²)

Expand to show TLE details & history
Last TLE update: 23 hours ago

TLE from 23 hours ago
0 NOAA 16 DEB
1 41059U 00055S   25301.43589651  .00001198  00000-0  58743-3 0  9990
2 41059  98.6475  12.8986 0020720 228.9605 130.9781 14.19522855513108
Epoch: 2025-10-28T10:27Z
TLE epoch observation values (Epoch: 2025-10-28T10:27:41.458Z)
Latitude
-0.00002°
Longitude
178.95244°
Altitude
839.692 km
Speed
7.428 km/s
True Right ascension
00h 51m 35s
True Declination
0° 00' 00"
Sunlit
Object was in full shadow at epoch
Visualization orbit readout
Latitude
Unknown
Longitude
Unknown
Altitude
Unknown
Speed
Unknown
Apparent Right ascension
Unknown
Apparent Declination
Unknown
Sunlit
N/A
Visualization observer readout
Local Sidereal Time
05:14:08
Azimuth
Unknown
Elevation
Unknown
Doppler factor
Unknown
Orbital elements
Apogee altitude
839.046 km
Perigee altitude
809.2 km
Semi-major axis
7,202.26 km
Eccentricity
0.00207
Inclination
98.6475°
RAAN
12.8986°
Arg. of periapsis
228.9605°
True anomaly
131.15705°
Mean anomaly
130.9781°
Eccentric anomaly
131.0676°
Mean motion
3.55091 °/min
Orbital period
101.38 mins
BSTAR
0.00058743
Loading maneuver chart data...
Computing Atmospheric mass density...
Loading historical data...
Loading historical data...
Loading historical data...
Loading historical data...
Loading historical data...
Loading historical data...
Loading historical data...

Documentation

Showing up to 5 results
|